Regional Weather Roundup
Issued by NWS

Home | Current Version | Previous Version | Graphics & Text | Print | Product List | Glossary On
Versions: 1 2 3 4 5 6 7 8 9 10 11 12 13 14 15 16 17 18 19 20 21 22 23 24 25 26 27 28 29 30 31 32 33 34 35 36 37 38 39 40 41 42 43 44 45 46 47 48 49 50
000
ASUS43 KLSX 061259
RWRMO

WEATHER SUMMARY FOR MISSOURI
NATIONAL WEATHER SERVICE SPRINGFIELD MO
800 AM CDT WED MAY 06 2015

NOTE: "FAIR" INDICATES FEW OR NO CLOUDS BELOW 12,000 FEET WITH NO
       SIGNIFICANT WEATHER AND/OR OBSTRUCTIONS TO VISIBILITY.
       CURRENT SKY AND/OR WEATHER CONDITIONS ARE NOT AVAILABLE FOR
       CHILLICOTHE AND FARMINGTON.

MOZ001>031-035>038-043-044-053-054-061400-
...NORTHERN AND WESTERN MISSOURI...

CITY           SKY/WX    TMP DP  RH WIND       PRES   REMARKS
KANSAS CTY INT PTSUNNY   67  58  72 S18       29.92F
KANSAS C DTWN  LGT RAIN  69  58  67 S14G28    29.92F
LEE`S SUMMIT   LGT RAIN  65  60  84 S15G24    29.95F
ST JOSEPH      CLOUDY    67  58  72 S15       29.90F
CHILLICOTHE      N/A     68  56  65 SE12G18   30.00S
KIRKSVILLE     MOSUNNY   68  57  68 S13       30.06S

$$
MOZ066>068-077>081-088>096-101>105-061400-
...SOUTHWEST MISSOURI...

CITY           SKY/WX    TMP DP  RH WIND       PRES   REMARKS
SPRINGFIELD    CLOUDY    66  54  65 SE13      30.06R
JOPLIN         LGT RAIN  61  59  93 SE14G23   30.01F

$$
MOZ032>034-039>042-045>050-055>058-069>072-061400-
...CENTRAL MISSOURI...

CITY           SKY/WX    TMP DP  RH WIND       PRES   REMARKS
COLUMBIA       MOSUNNY   67  55  65 SE13      30.07S
JEFFERSON CITY MOSUNNY   66  54  65 SE12      30.07S
ROLLA          SUNNY     65  53  65 SE13      30.09S
SEDALIA        PTSUNNY   68  55  63 S12       30.04R
WHITEMAN AFB   LGT RAIN  68  57  68 S16G25    29.99S
OSAGE BEACH    MOSUNNY   64  52  63 S7        30.08R

$$
MOZ051-052-059>065-061400-
...EAST CENTRAL MISSOURI...

CITY           SKY/WX    TMP DP  RH WIND       PRES   REMARKS
ST LOUIS INTL  PTSUNNY   72  55  55 S8        30.15R
SPIRIT OF STL  MOSUNNY   69  55  60 S3        30.13R
ST CHARLES     MOSUNNY   68  57  68 E5        30.13R

$$
MOZ072>076-082>087-097>100-106>115-061400-
...SOUTH CENTRAL AND SOUTHEAST MISSOURI...

CITY           SKY/WX    TMP DP  RH WIND       PRES   REMARKS
CAPE GIRARDEAU SUNNY     68  59  73 SE3       30.16R
FARMINGTON     SUNNY     61  55  82 S3        30.19S
POPLAR BLUFF   SUNNY     66  56  70 CALM      30.14R
WEST PLAINS    SUNNY     62  52  69 SE5       30.13R

$$



USA.gov is the U.S. government's official web portal to all federal, state and local government web resources and services.